This is the latest recevied weather packets stored in our database for station/object K6TTR. If no packets are shown the sender has not sent any weather packets the latest 10 day(s).
| Time | Temp. | Humidity | Pressure | Rain* | Wind** | Luminosity | Snow |
|---|---|---|---|---|---|---|---|
| 1777912730 | 9.44° C | 82% | 1013.8 hPa | 0 mm | - | 276 W/m² | - |
| 1777912413 | 9.44° C | 84% | 1013.9 hPa | 0 mm | - | 352 W/m² | - |
| 1777912118 | 8.89° C | 83% | 1014 hPa | 0 mm | - | 171 W/m² | - |
| 1777911824 | 8.89° C | 83% | 1014 hPa | 0 mm | - | 107 W/m² | - |
| 1777911513 | 8.89° C | 84% | 1014.1 hPa | 0 mm | - | 327 W/m² | - |
| 1777911216 | 8.33° C | 84% | 1014.1 hPa | 0 mm | - | 211 W/m² | - |
| 1777910921 | 8.33° C | 84% | 1014.1 hPa | 0 mm | - | 171 W/m² | - |
| 1777910626 | 8.33° C | 85% | 1014.2 hPa | 0 mm | - | 174 W/m² | - |
| 1777910312 | 8.33° C | 85% | 1014 hPa | 0 mm | - | 105 W/m² | - |
| 1777910018 | 8.33° C | 85% | 1014 hPa | 0 mm | - | 98 W/m² | - |
| 1777909722 | 8.33° C | 85% | 1014 hPa | 0 mm | - | 169 W/m² | - |
| 1777909427 | 8.33° C | 85% | 1014 hPa | 0 mm | - | 127 W/m² | - |
| 1777909111 | 8.33° C | 86% | 1013.9 hPa | 0 mm | - | 162 W/m² | - |
| 1777908816 | 8.33° C | 88% | 1013.8 hPa | 0 mm | - | 200 W/m² | - |
| 1777908521 | 7.78° C | 87% | 1013.7 hPa | 0 mm | - | 237 W/m² | - |
| 1777908224 | 7.78° C | 87% | 1013.6 hPa | 0 mm | - | 174 W/m² | - |
| 1777907927 | 7.78° C | 87% | 1013.7 hPa | 0 mm | - | 58 W/m² | - |
| 1777907613 | 7.78° C | 88% | 1013.8 hPa | 0 mm | - | 32 W/m² | - |
| 1777907317 | 7.78° C | 88% | 1013.8 hPa | 0 mm | - | 26 W/m² | - |
| 1777907023 | 7.78° C | 88% | 1013.8 hPa | 0 mm | - | 44 W/m² | - |
| 1777906729 | 7.78° C | 88% | 1013.7 hPa | 0 mm | - | 40 W/m² | - |
| 1777906416 | 7.78° C | 88% | 1013.8 hPa | 0 mm | - | 21 W/m² | - |
| 1777906120 | 7.78° C | 88% | 1013.8 hPa | 0 mm | - | 16 W/m² | - |
| 1777905827 | 7.78° C | 88% | 1013.9 hPa | 0 mm | - | 25 W/m² | - |
| 1777905512 | 7.78° C | 88% | 1013.8 hPa | 0 mm | - | 37 W/m² | - |
* Rain latest hour (hover to see other rain measurements)
** Current wind speed in m/s (hover to see current wind gust speed)